GW3397 Weather Reports


Display with metric or nautical units.
time (UTC)temp
F
wind
direction
speed
MPH
gust
MPH
rain 1hr
in
rain 24hr
in
rain mn
in
humidity
%
barometer
mb
20260906122927 62 287 1.0 1.0 0.00 0.00 0.00 95 1022.0
20260906122422 61 336 1.0 1.0 0.00 0.00 0.00 96 1021.8
20260906121919 61 336 1.0 1.0 0.00 0.00 0.00 96 1021.8
20260906121415 61 336 1.0 1.0 0.00 0.00 0.00 96 1022.0
20260906120911 61 295 4.0 5.0 0.00 0.00 0.00 96 1021.8
20260906120406 60 277 1.0 2.0 0.00 0.00 0.00 97 1021.6
20260906115902 60 277 1.0 2.0 0.00 0.00 0.00 97 1021.7
20260906115358 60 277 1.0 2.0 0.00 0.00 0.00 97 1021.9
20260906114857 60 277 1.0 2.0 0.00 0.00 0.00 97 1021.9
20260906114352 60 277 1.0 2.0 0.00 0.00 0.00 97 1021.6
20260906113847 60 267 0.0 0.0 0.00 0.00 0.00 97 1021.4
20260906113346 60 267 0.0 0.0 0.00 0.00 0.00 97 1021.5
20260906112842 60 267 0.0 0.0 0.00 0.00 0.00 97 1021.5
20260906112338 60 267 0.0 0.0 0.00 0.00 0.00 97 1021.4
20260906111837 60 267 0.0 0.0 0.00 0.00 0.00 97 1021.4
20260906111332 60 267 0.0 0.0 0.00 0.00 0.00 97 1020.9
20260906110827 60 267 0.0 0.0 0.00 0.00 0.00 97 1021.3
20260906110323 60 267 0.0 0.0 0.00 0.00 0.00 97 1021.0
20260906105822 60 267 0.0 0.0 0.00 0.00 0.00 97 1021.1
20260906105318 60 267 0.0 0.0 0.00 0.00 0.00 97 1020.9
20260906104813 60 267 0.0 0.0 0.00 0.00 0.00 97 1021.0
20260906104311 60 267 0.0 0.0 0.00 0.00 0.00 97 1020.9
20260906103809 60 264 0.0 0.0 0.00 0.00 0.00 97 1021.0
20260906103308 60 288 0.0 0.0 0.00 0.00 0.00 97 1020.8
20260906102805 60 295 0.0 0.0 0.00 0.00 0.00 97 1020.9
20260906102258 60 297 0.0 0.0 0.00 0.00 0.00 97 1020.7
20260906101754 60 291 0.0 0.0 0.00 0.00 0.00 97 1020.6
20260906101248 60 302 0.0 0.0 0.00 0.00 0.00 97 1020.4
20260906100744 60 311 0.0 0.0 0.00 0.00 0.00 97 1020.4
20260906100243 60 282 0.0 0.0 0.00 0.00 0.00 97 1020.3
20260906095738 60 312 0.0 0.0 0.00 0.00 0.00 97 1020.4
20260906095234 60 328 0.0 0.0 0.00 0.00 0.00 97 1020.4
20260906094733 60 299 0.0 0.0 0.00 0.00 0.00 97 1020.4
20260906094228 60 18 0.0 0.0 0.00 0.00 0.00 97 1020.3
20260906093724 60 304 0.0 0.0 0.00 0.00 0.00 97 1020.3
20260906093214 60 288 0.0 0.0 0.00 0.00 0.00 97 1020.4
20260906092709 60 293 0.0 0.0 0.00 0.00 0.00 97 1020.1
20260906092209 60 278 0.0 0.0 0.00 0.00 0.00 97 1020.0
20260906091705 60 264 0.0 0.0 0.00 0.00 0.00 97 1019.9
20260906091201 60 294 0.0 0.0 0.00 0.00 0.00 97 1020.0
20260906090657 60 279 0.0 0.0 0.00 0.00 0.00 97 1020.0
20260906090156 60 286 0.0 0.0 0.00 0.00 0.00 97 1019.9
20260906085655 60 266 0.0 0.0 0.00 0.00 0.00 97 1019.7
20260906085154 60 279 0.0 0.0 0.00 0.00 0.00 97 1019.8
20260906084649 60 259 0.0 0.0 0.00 0.00 0.00 97 1019.5
20260906084149 60 281 0.0 0.0 0.00 0.00 0.00 97 1019.6
20260906083644 60 315 1.0 2.0 0.00 0.00 0.00 97 1019.6
20260906083139 60 278 0.0 0.0 0.00 0.00 0.00 97 1019.5
20260906082634 60 297 0.0 0.0 0.00 0.00 0.00 97 1019.7
20260906082130 61 300 0.0 0.0 0.00 0.00 0.00 97 1019.7
20260906081626 61 323 0.0 2.0 0.00 0.00 0.00 97 1019.5
20260906081120 61 311 0.0 1.0 0.00 0.00 0.00 97 1019.4
20260906080617 0 0.0 0.0 0.00 0.00 0.00 1019.3
20260906080113 0 0.0 0.0 0.00 0.00 0.00 1019.4
20260906075607 0 0.0 0.0 0.00 0.00 0.00 1019.4
20260906075101 61 256 0.0 1.0 0.00 0.00 0.00 96 1019.4
20260906074556 61 256 0.0 1.0 0.00 0.00 0.00 96 1019.6
20260906074049 61 256 0.0 1.0 0.00 0.00 0.00 96 1019.7
20260906073544 61 256 0.0 1.0 0.00 0.00 0.00 96 1019.6
20260906073040 61 256 0.0 1.0 0.00 0.00 0.00 96 1019.6
20260906072535 61 256 0.0 1.0 0.00 0.00 0.00 96 1019.5
20260906072031 61 256 0.0 1.0 0.00 0.00 0.00 96 1019.4
20260906071527 61 256 0.0 1.0 0.00 0.00 0.00 96 1019.3
20260906071022 61 256 0.0 1.0 0.00 0.00 0.00 96 1019.2
20260906070519 61 256 0.0 1.0 0.00 0.00 0.00 96 1019.3
20260906070014 61 256 0.0 1.0 0.00 0.00 0.00 96 1019.2
20260906065513 61 256 0.0 1.0 0.00 0.00 0.00 96 1019.4
20260906065009 0 0.0 0.0 0.00 0.00 0.00 1019.2
20260906064505 0 0.0 0.0 0.00 0.00 0.00 1019.3
20260906064000 0 0.0 0.0 0.00 0.00 0.00 1019.2
20260906063456 0 0.0 0.0 0.00 0.00 0.00 1019.2
20260906062955 0 0.0 0.0 0.00 0.00 0.00 1019.0
20260906062450 0 0.0 0.0 0.00 0.00 0.00 1019.0
20260906061946 0 0.0 0.0 0.00 0.00 0.00 1019.3
20260906061441 0 0.0 0.0 0.00 0.00 0.00 1019.3
20260906060935 0 0.0 0.0 0.00 0.00 0.00 1019.1
20260906060433 0 0.0 0.0 0.00 0.00 0.00 1019.3
20260906055929 0 0.0 0.0 0.00 0.00 0.00 1019.3
20260906055425 0 0.0 0.0 0.00 0.00 0.00 1019.3
20260906054920 0 0.0 0.0 0.00 0.00 0.00 1019.5
20260906054414 0 0.0 0.0 0.00 0.00 0.00 1019.5
20260906053911 0 0.0 0.0 0.00 0.00 0.00 1019.6
20260906053407 0 0.0 0.0 0.00 0.00 0.00 1019.5
20260906052902 0 0.0 0.0 0.00 0.00 0.00 1019.4
20260906052358 0 0.0 0.0 0.00 0.00 0.00 1019.5
20260906051855 0 0.0 0.0 0.00 0.00 0.00 1019.4
20260906051354 0 0.0 0.0 0.00 0.00 0.00 1019.5
20260906050850 0 0.0 0.0 0.00 0.00 0.00 1019.4
20260906050345 0 0.0 0.0 0.00 0.00 0.00 1019.5
20260906045844 0 0.0 0.0 0.00 0.00 0.00 1019.6
20260906045338 0 0.0 0.0 0.00 0.00 0.00 1019.3
20260906044834 0 0.0 0.0 0.00 0.00 0.00 1019.4
20260906044329 0 0.0 0.0 0.00 0.00 0.00 1019.6
20260906043826 0 0.0 0.0 0.00 0.00 0.00 1019.4
20260906043321 0 0.0 0.0 0.00 0.00 0.00 1019.4
20260906042820 0 0.0 0.0 0.00 0.00 0.00 1019.4
20260906042319 0 0.0 0.0 0.00 0.00 0.00 1019.6
20260906041815 0 0.0 0.0 0.00 0.00 0.00 1019.5
20260906041310 0 0.0 0.0 0.00 0.00 0.00 1019.4
20260906040805 0 0.0 0.0 0.00 0.00 0.00 1019.5
20260906040301 0 0.0 0.0 0.00 0.00 0.00 1019.1
20260906035756 0 0.0 0.0 0.00 0.00 0.00 1019.2
20260906035251 0 0.0 0.0 0.00 0.00 0.00 1019.1
20260906034746 0 0.0 0.0 0.00 0.00 0.00 1019.2
20260906034241 62 215 0.0 0.0 0.00 0.00 0.00 95 1019.1
20260906033737 62 215 0.0 0.0 0.00 0.00 0.00 95 1019.1
20260906033236 62 215 0.0 0.0 0.00 0.00 0.00 95 1019.2
20260906032733 62 215 0.0 0.0 0.00 0.00 0.00 95 1019.2
20260906032233 62 215 0.0 0.0 0.00 0.00 0.00 95 1019.1
20260906031728 62 215 0.0 0.0 0.00 0.00 0.00 95 1019.0
20260906031224 62 215 0.0 0.0 0.00 0.00 0.00 95 1019.1
20260906030723 62 215 0.0 0.0 0.00 0.00 0.00 95 1019.0
20260906030218 62 215 0.0 0.0 0.00 0.00 0.00 95 1018.9
20260906025717 62 215 0.0 0.0 0.00 0.00 0.00 95 1018.9
20260906025212 62 215 0.0 0.0 0.00 0.00 0.00 95 1018.4
20260906024711 62 215 0.0 0.0 0.00 0.00 0.00 95 1018.7
20260906024210 63 278 0.0 0.0 0.00 0.00 0.00 95 1018.6
20260906023706 63 278 0.0 0.0 0.00 0.00 0.00 95 1018.5
20260906023201 63 278 0.0 0.0 0.00 0.00 0.00 95 1018.6
20260906022656 63 278 0.0 0.0 0.00 0.00 0.00 95 1018.6
20260906022152 63 278 0.0 0.0 0.00 0.00 0.00 95 1018.6
20260906021648 63 278 0.0 0.0 0.00 0.00 0.00 95 1018.6
20260906021146 63 278 0.0 0.0 0.00 0.00 0.00 95 1018.7
20260906020641 63 278 0.0 0.0 0.00 0.00 0.00 95 1018.6
20260906020136 63 247 0.0 0.0 0.00 0.00 0.00 95 1018.7
20260906015630 63 267 0.0 0.0 0.00 0.00 0.00 95 1018.7
20260906015128 63 209 1.0 1.0 0.00 0.00 0.00 95 1018.5
20260906014623 63 209 1.0 1.0 0.00 0.00 0.00 95 1018.4
20260906014119 63 209 1.0 1.0 0.00 0.00 0.00 95 1018.4
20260906013614 63 256 0.0 0.0 0.00 0.00 0.00 95 1018.6
20260906013110 63 279 0.0 0.0 0.00 0.00 0.00 95 1018.5
20260906012605 65 272 0.0 0.0 0.00 0.00 0.00 94 1018.4
20260906012105 65 272 0.0 0.0 0.00 0.00 0.00 94 1018.4
20260906011601 65 272 0.0 0.0 0.00 0.00 0.00 94 1018.2
20260906011055 65 272 0.0 0.0 0.00 0.00 0.00 94 1018.2
20260906010550 65 272 0.0 0.0 0.00 0.00 0.00 94 1018.4
20260906010046 65 272 0.0 0.0 0.00 0.00 0.00 94 1018.3
20260906005546 65 272 0.0 0.0 0.00 0.00 0.00 94 1018.3
20260906005045 65 272 0.0 0.0 0.00 0.00 0.00 94 1018.0
20260906004544 65 272 0.0 0.0 0.00 0.00 0.00 94 1018.0
20260906004039 65 272 0.0 0.0 0.00 0.00 0.00 94 1018.1
20260906003534 65 272 0.0 0.0 0.00 0.00 0.00 94 1018.0
20260906003031 66 259 0.0 0.0 0.00 0.00 0.00 94 1018.2
20260906002531 66 253 0.0 0.0 0.00 0.00 0.00 94 1018.2
20260906002025 66 224 0.0 0.0 0.00 0.00 0.00 94 1018.3
20260906001521 66 156 0.0 0.0 0.00 0.00 0.00 94 1018.1
20260906001016 66 281 0.0 0.0 0.00 0.00 0.00 94 1018.1
20260906000512 66 295 0.0 0.0 0.00 0.00 0.00 93 1018.6
20260906000012 66 295 0.0 0.0 0.00 0.00 0.00 93 1018.2
20260905235506 66 285 0.0 0.0 0.00 0.00 0.00 92 1018.1
20260905235001 67 282 0.0 0.0 0.00 0.00 0.00 93 1017.9
20260905234456 67 237 1.0 1.0 0.00 0.00 0.00 92 1017.8
20260905233950 67 249 1.0 1.0 0.00 0.00 0.00 92 1018.0
20260905233446 67 296 0.0 0.0 0.00 0.00 0.00 92 1017.9
20260905232944 67 302 0.0 0.0 0.00 0.00 0.00 91 1018.1
20260905232441 68 269 0.0 0.0 0.00 0.00 0.00 91 1018.1
20260905231936 68 263 0.0 0.0 0.00 0.00 0.00 91 1017.9
20260905231432 68 293 0.0 0.0 0.00 0.00 0.00 90 1017.8
20260905230928 68 296 0.0 0.0 0.00 0.00 0.00 89 1018.0
20260905230427 68 268 0.0 0.0 0.00 0.00 0.00 88 1018.1
20260905225925 68 334 0.0 0.0 0.00 0.00 0.00 87 1018.1
20260905225420 69 327 0.0 0.0 0.00 0.00 0.00 88 1018.0
20260905224915 70 328 2.0 2.0 0.00 0.00 0.00 82 1017.9
20260905224411 70 328 2.0 2.0 0.00 0.00 0.00 82 1018.1
20260905223905 70 328 2.0 2.0 0.00 0.00 0.00 82 1017.7
20260905223403 70 328 2.0 2.0 0.00 0.00 0.00 82 1017.8
20260905222903 70 328 2.0 2.0 0.00 0.00 0.00 82 1017.6
20260905222402 70 328 2.0 2.0 0.00 0.00 0.00 82 1017.6
20260905221858 70 10 1.0 2.0 0.00 0.00 0.00 83 1017.6
20260905221355 70 19 2.0 2.0 0.00 0.00 0.00 83 1017.4
20260905220850 70 1 1.0 2.0 0.00 0.00 0.00 83 1017.5
20260905220347 71 358 3.0 3.0 0.00 0.00 0.00 82 1017.3
20260905215846 71 340 1.0 2.0 0.00 0.00 0.00 82 1017.4
20260905215341 71 327 0.0 1.0 0.00 0.00 0.00 82 1017.4
20260905214832 71 344 2.0 2.0 0.00 0.00 0.00 81 1017.3
20260905214327 71 297 2.0 2.0 0.00 0.00 0.00 81 1017.3
20260905213822 72 298 3.0 3.0 0.00 0.00 0.00 79 1017.0
20260905213318 73 312 2.0 2.0 0.00 0.00 0.00 77 1017.0
20260905212812 73 312 2.0 5.0 0.00 0.00 0.00 77 1016.9
20260905212307 73 323 2.0 5.0 0.00 0.00 0.00 76 1016.9
20260905211801 74 297 3.0 5.0 0.00 0.00 0.00 76 1016.9
20260905211256 71 284 2.0 2.0 0.00 0.00 0.00 81 1017.3
20260905210753 71 284 2.0 2.0 0.00 0.00 0.00 81 1016.9
20260905210253 71 284 2.0 2.0 0.00 0.00 0.00 81 1017.0
20260905205751 71 284 2.0 2.0 0.00 0.00 0.00 81 1016.9
20260905205246 70 289 2.0 3.0 0.00 0.00 0.00 82 1016.8
20260905204745 71 308 7.0 8.0 0.00 0.00 0.00 80 1017.0
20260905204236 71 308 7.0 8.0 0.00 0.00 0.00 80 1017.1
20260905203735 72 279 4.0 5.0 0.00 0.00 0.00 80 1017.0
20260905203230 72 290 3.0 3.0 0.00 0.00 0.00 79 1017.0
20260905202725 72 300 4.0 6.0 0.00 0.00 0.00 78 1016.9
20260905202221 72 301 8.0 11.0 0.00 0.00 0.00 78 1016.8
20260905201716 74 269 6.0 6.0 0.00 0.00 0.00 75 1016.9
20260905201211 75 299 6.0 13.0 0.00 0.00 0.00 72 1016.8
20260905200706 75 318 5.0 7.0 0.00 0.00 0.00 71 1016.7
20260905200202 75 291 3.0 5.0 0.00 0.00 0.00 73 1017.0
20260905195700 73 285 1.0 2.0 0.00 0.00 0.00 76 1016.9
20260905195154 73 301 1.0 2.0 0.00 0.00 0.00 76 1016.7
20260905194649 73 321 1.0 2.0 0.00 0.00 0.00 74 1016.7
20260905194144 74 246 4.0 5.0 0.00 0.00 0.00 73 1016.9
20260905193638 74 281 1.0 5.0 0.00 0.00 0.00 75 1016.9
20260905193133 74 291 3.0 5.0 0.00 0.00 0.00 75 1016.5
20260905192628 74 334 4.0 6.0 0.00 0.00 0.00 76 1016.6
20260905192125 73 299 3.0 3.0 0.00 0.00 0.00 76 1016.6
20260905191624 73 319 3.0 5.0 0.00 0.00 0.00 77 1016.9
20260905191123 72 325 2.0 2.0 0.00 0.00 0.00 78 1016.7
20260905190621 72 299 3.0 3.0 0.00 0.00 0.00 79 1016.9
20260905190120 71 270 1.0 2.0 0.00 0.00 0.00 80 1017.0
20260905185619 71 265 3.0 3.0 0.00 0.00 0.00 80 1016.8
20260905185114 71 301 3.0 5.0 0.00 0.00 0.00 81 1016.9
20260905184609 71 293 2.0 2.0 0.00 0.00 0.00 81 1016.8
20260905184108 72 16 3.0 3.0 0.00 0.00 0.00 77 1017.0
20260905183607 72 195 7.0 23.0 0.00 0.00 0.00 74 1017.0
20260905183103 72 195 7.0 23.0 0.00 0.00 0.00 74 1017.1
20260905182602 72 195 7.0 23.0 0.00 0.00 0.00 74 1017.2
20260905182057 72 195 7.0 23.0 0.00 0.00 0.00 74 1017.1
20260905181557 73 246 1.0 1.0 0.00 0.00 0.00 76 1017.0
20260905181056 71 206 1.0 1.0 0.00 0.00 0.00 79 1016.9
20260905180551 71 214 1.0 1.0 0.00 0.00 0.00 82 1017.0
20260905180046 70 208 1.0 1.0 0.00 0.00 0.00 82 1017.1
20260905175545 70 223 1.0 1.0 0.00 0.00 0.00 82 1017.0
20260905175041 70 223 1.0 1.0 0.00 0.00 0.00 82 1017.1
20260905174536 73 293 3.0 3.0 0.00 0.00 0.00 76 1017.1
20260905174032 73 293 3.0 3.0 0.00 0.00 0.00 76 1016.8
20260905173528 73 293 3.0 3.0 0.00 0.00 0.00 76 1016.9
20260905173023 73 345 1.0 2.0 0.00 0.00 0.00 75 1016.8
20260905172521 73 54 0.0 1.0 0.00 0.00 0.00 73 1016.9
20260905172017 74 192 5.0 7.0 0.00 0.00 0.00 72 1017.1
20260905171513 74 203 1.0 2.0 0.00 0.00 0.00 75 1016.9
20260905171009 71 287 4.0 6.0 0.00 0.00 0.00 77 1017.1
20260905170506 71 304 4.0 5.0 0.00 0.00 0.00 76 1017.1
20260905170000 72 328 3.0 5.0 0.00 0.00 0.00 77 1017.1
20260905165455 72 344 2.0 5.0 0.00 0.00 0.00 79 1017.1
20260905164949 72 263 3.0 3.0 0.00 0.00 0.00 78 1017.3
20260905164444 72 6 3.0 3.0 0.00 0.00 0.00 78 1017.0
20260905163939 73 294 5.0 6.0 0.00 0.00 0.00 76 1017.3
20260905163436 72 359 5.0 6.0 0.00 0.00 0.00 76 1017.2
20260905162931 72 277 7.0 9.0 0.00 0.00 0.00 76 1017.3
20260905162426 72 277 7.0 9.0 0.00 0.00 0.00 76 1017.3
20260905161921 72 277 7.0 9.0 0.00 0.00 0.00 76 1017.3
20260905161420 72 277 7.0 9.0 0.00 0.00 0.00 76 1017.3
20260905160918 72 324 3.0 3.0 0.00 0.00 0.00 76 1017.4
20260905160412 72 342 5.0 6.0 0.00 0.00 0.00 78 1017.6
20260905155907 71 258 3.0 7.0 0.00 0.00 0.00 77 1017.6
20260905155407 71 291 4.0 5.0 0.00 0.00 0.00 79 1017.7
20260905154905 70 296 3.0 3.0 0.00 0.00 0.00 80 1017.5
20260905154401 70 342 3.0 3.0 0.00 0.00 0.00 80 1017.7
20260905153856 70 300 6.0 8.0 0.00 0.00 0.00 82 1017.7
20260905153353 70 1 5.0 8.0 0.00 0.00 0.00 82 1017.7
20260905152852 69 334 4.0 6.0 0.00 0.00 0.00 80 1017.8
20260905152351 69 282 5.0 9.0 0.00 0.00 0.00 81 1017.8
20260905151847 68 300 7.0 8.0 0.00 0.00 0.00 84 1018.0
20260905151342 69 318 3.0 3.0 0.00 0.00 0.00 84 1018.1
20260905150837 69 302 3.0 5.0 0.00 0.00 0.00 84 1018.1
20260905150331 69 318 5.0 10.0 0.00 0.00 0.00 82 1018.1
20260905145829 67 295 5.0 7.0 0.00 0.00 0.00 86 1018.2
20260905145328 67 295 5.0 7.0 0.00 0.00 0.00 86 1018.0
20260905144828 67 295 5.0 7.0 0.00 0.00 0.00 86 1018.0
20260905144323 67 332 4.0 6.0 0.00 0.00 0.00 86 1018.3
20260905143822 67 311 3.0 3.0 0.00 0.00 0.00 86 1018.1
20260905143316 67 234 6.0 8.0 0.00 0.00 0.00 85 1018.0
20260905142815 67 234 6.0 8.0 0.00 0.00 0.00 85 1017.8
20260905142309 67 234 6.0 8.0 0.00 0.00 0.00 85 1017.9
20260905141806 67 259 3.0 3.0 0.00 0.00 0.00 87 1017.9
20260905141301 66 286 5.0 6.0 0.00 0.00 0.00 87 1018.1
20260905140756 65 320 7.0 9.0 0.00 0.00 0.00 88 1018.3
20260905140251 65 298 8.0 9.0 0.00 0.00 0.00 89 1018.2
20260905135749 67 20 3.0 6.0 0.00 0.00 0.00 88 1018.0
20260905135245 67 20 3.0 8.0 0.00 0.00 0.00 88 1018.2
20260905134744 67 291 4.0 8.0 0.00 0.00 0.00 88 1018.2
20260905134239 65 358 3.0 3.0 0.00 0.00 0.00 90 1018.2
20260905133733 65 355 5.0 7.0 0.00 0.00 0.00 91 1018.2
20260905133229 65 301 5.0 7.0 0.00 0.00 0.00 91 1018.1
20260905132728 64 27 5.0 9.0 0.00 0.00 0.00 92 1018.0
20260905132224 63 296 7.0 8.0 0.00 0.00 0.00 93 1018.1
20260905131719 63 289 3.0 6.0 0.00 0.00 0.00 94 1018.2
20260905131214 63 289 3.0 6.0 0.00 0.00 0.00 94 1018.2
20260905130713 62 307 3.0 3.0 0.00 0.00 0.00 94 1018.3
20260905130208 62 307 4.0 5.0 0.00 0.00 0.00 95 1018.4
20260905125703 62 307 4.0 5.0 0.00 0.00 0.00 95 1018.4
20260905125158 62 318 3.0 3.0 0.00 0.00 0.00 95 1018.2
20260905124654 62 323 3.0 5.0 0.00 0.00 0.00 95 1018.2
20260905124150 62 323 3.0 5.0 0.00 0.00 0.00 95 1018.3
20260905123645 62 324 3.0 3.0 0.00 0.00 0.00 95 1018.5
20260905123142 62 279 1.0 3.0 0.00 0.00 0.00 95 1018.1